Strathmore
DateTemperatureDew Point
08/30 - 07:15 PM81.1°62.3°
08/30 - 07:00 PM83.8°60.6°
08/30 - 06:45 PM85.9°59.6°
08/30 - 06:30 PM87.6°58.3°
08/30 - 06:15 PM89.1°57.3°
08/30 - 06:00 PM90.3°56.5°
08/30 - 05:45 PM91.3°56.4°
08/30 - 05:30 PM92.0°55.2°
08/30 - 05:15 PM92.6°54.7°
08/30 - 05:00 PM93.1°54.6°
08/30 - 04:45 PM93.2°54.4°
08/30 - 04:30 PM93.4°53.9°
08/30 - 04:15 PM94.1°54.0°
08/30 - 04:00 PM94.3°53.3°
08/30 - 03:45 PM93.9°52.8°
08/30 - 03:30 PM94.1°53.3°
08/30 - 03:15 PM94.0°51.7°
08/30 - 03:00 PM94.3°51.8°
08/30 - 02:45 PM94.3°51.2°
08/30 - 02:30 PM94.2°51.1°
08/30 - 02:15 PM93.8°53.4°
08/30 - 02:00 PM93.2°53.4°
08/30 - 01:45 PM93.8°54.2°
08/30 - 01:30 PM93.2°54.8°
08/30 - 01:15 PM91.7°54.6°
08/30 - 01:00 PM90.4°55.1°
08/30 - 12:45 PM90.0°55.3°
08/30 - 12:30 PM89.5°55.4°
08/30 - 12:15 PM88.2°55.3°
08/30 - 12:00 PM88.5°55.7°
08/30 - 11:45 AM87.9°54.7°
08/30 - 11:30 AM87.0°56.5°
08/30 - 11:15 AM86.5°57.3°
08/30 - 11:00 AM85.0°57.0°
08/30 - 10:45 AM84.6°57.0°
08/30 - 10:30 AM82.7°56.0°
08/30 - 10:15 AM81.8°55.5°
08/30 - 10:00 AM80.5°55.2°
08/30 - 09:45 AM79.4°55.7°
08/30 - 09:30 AM78.1°56.5°
08/30 - 09:15 AM76.0°56.5°
08/30 - 09:00 AM74.2°56.3°
08/30 - 08:45 AM72.6°56.3°
08/30 - 08:30 AM71.4°56.4°
08/30 - 08:15 AM70.1°56.1°
08/30 - 08:00 AM68.9°56.2°
08/30 - 07:45 AM67.6°56.8°
08/30 - 07:30 AM65.9°57.1°
08/30 - 07:15 AM64.1°58.0°
08/30 - 07:00 AM63.2°57.5°
08/30 - 06:45 AM62.3°57.2°
08/30 - 06:30 AM60.8°58.7°
08/30 - 06:15 AM59.6°59.5°
08/30 - 06:00 AM59.0°59.0°
08/30 - 05:45 AM59.6°59.5°
08/30 - 05:30 AM59.8°59.6°
08/30 - 05:15 AM60.0°59.6°
08/30 - 05:00 AM60.3°59.7°
08/30 - 04:45 AM60.6°59.7°
08/30 - 04:30 AM60.9°59.8°
08/30 - 04:15 AM61.3°59.9°
08/30 - 04:00 AM61.7°60.1°
08/30 - 03:45 AM61.9°59.8°
08/30 - 03:30 AM62.3°59.8°
08/30 - 03:15 AM62.5°59.6°
08/30 - 03:00 AM62.9°60.1°
08/30 - 02:45 AM63.3°60.2°
08/30 - 02:30 AM63.6°59.9°
08/30 - 02:15 AM64.2°59.6°
08/30 - 02:00 AM64.7°59.8°
08/30 - 01:45 AM64.9°60.5°
08/30 - 01:30 AM65.6°60.7°
08/30 - 01:15 AM66.2°60.3°
08/30 - 01:00 AM66.6°59.8°
08/30 - 12:45 AM67.0°59.9°
08/30 - 12:30 AM67.4°60.5°
08/30 - 12:15 AM68.3°60.7°
08/30 - 12:00 AM69.5°60.4°
08/29 - 11:45 PM70.4°59.8°
08/29 - 11:30 PM70.5°59.6°
08/29 - 11:15 PM69.9°60.2°
08/29 - 11:00 PM70.3°60.7°
08/29 - 10:45 PM71.0°60.4°
08/29 - 10:30 PM71.7°60.0°
08/29 - 10:15 PM71.9°59.8°
08/29 - 10:00 PM71.2°60.6°
08/29 - 09:45 PM71.2°60.2°
08/29 - 09:30 PM70.8°61.7°
08/29 - 09:15 PM71.1°63.0°
08/29 - 09:00 PM71.7°62.4°
08/29 - 08:45 PM72.3°61.4°
08/29 - 08:30 PM72.8°62.3°
08/29 - 08:15 PM73.5°63.6°
08/29 - 08:00 PM74.7°65.1°
08/29 - 07:45 PM75.8°65.5°
08/29 - 07:30 PM77.4°66.4°
08/29 - 07:15 PM79.0°66.1°
08/29 - 07:00 PM81.3°67.6°
08/29 - 06:45 PM83.7°66.5°
08/29 - 06:30 PM85.9°66.1°
08/29 - 06:15 PM87.4°63.2°
08/29 - 06:00 PM88.5°61.3°
08/29 - 05:45 PM89.4°60.4°
08/29 - 05:30 PM90.0°60.2°
08/29 - 05:15 PM90.8°60.5°
08/29 - 05:00 PM91.3°60.7°
08/29 - 04:45 PM91.5°60.8°
08/29 - 04:30 PM92.3°60.8°
08/29 - 04:15 PM93.3°61.2°
08/29 - 04:00 PM92.2°60.6°
08/29 - 03:45 PM92.4°60.0°
08/29 - 03:30 PM92.6°59.5°
08/29 - 03:15 PM93.0°59.8°
08/29 - 03:00 PM92.0°59.4°
08/29 - 02:45 PM92.4°60.0°
08/29 - 02:30 PM91.5°60.2°
08/29 - 02:15 PM90.9°59.8°
08/29 - 02:00 PM90.1°59.8°
08/29 - 01:45 PM88.8°58.8°
08/29 - 01:30 PM88.2°59.8°
08/29 - 01:15 PM86.8°60.0°
08/29 - 01:00 PM86.4°60.4°
08/29 - 12:45 PM87.3°60.5°
08/29 - 12:30 PM88.1°60.4°
08/29 - 12:15 PM86.1°60.5°
08/29 - 12:00 PM84.2°60.9°
08/29 - 11:45 AM84.4°60.9°
08/29 - 11:30 AM84.2°61.8°
08/29 - 11:15 AM82.4°61.9°
08/29 - 11:00 AM81.5°62.4°
08/29 - 10:45 AM80.8°62.5°
08/29 - 10:30 AM80.8°62.9°
08/29 - 10:15 AM80.9°62.9°
08/29 - 10:00 AM81.2°63.3°
08/29 - 09:45 AM80.2°63.2°
08/29 - 09:30 AM79.8°62.4°
08/29 - 09:15 AM78.8°61.8°
08/29 - 09:00 AM78.2°62.0°
08/29 - 08:45 AM77.9°61.7°
08/29 - 08:30 AM77.7°62.0°
08/29 - 08:15 AM76.8°62.9°
08/29 - 08:00 AM75.1°63.7°
08/29 - 07:45 AM72.8°63.1°
08/29 - 07:30 AM70.9°61.7°
08/29 - 07:15 AM68.9°61.8°
08/29 - 07:00 AM66.7°61.4°
08/29 - 06:45 AM65.0°61.9°
08/29 - 06:30 AM63.7°61.4°
08/29 - 06:15 AM62.7°61.5°
08/29 - 06:00 AM62.6°61.9°
08/29 - 05:45 AM62.8°62.0°
08/29 - 05:30 AM63.0°62.0°
08/29 - 05:15 AM63.3°62.2°
08/29 - 05:00 AM63.5°62.2°
08/29 - 04:45 AM63.8°62.2°
08/29 - 04:30 AM64.0°61.9°
08/29 - 04:15 AM64.2°61.5°
08/29 - 04:00 AM64.8°61.7°
08/29 - 03:45 AM65.1°61.8°
08/29 - 03:30 AM65.4°62.1°
08/29 - 03:15 AM65.5°62.7°
08/29 - 03:00 AM65.5°62.4°
08/29 - 02:45 AM65.6°61.9°
08/29 - 02:30 AM65.9°62.2°
08/29 - 02:15 AM66.1°62.5°
08/29 - 02:00 AM66.7°62.1°
08/29 - 01:45 AM67.1°61.9°
08/29 - 01:30 AM67.4°62.1°
08/29 - 01:15 AM68.3°61.8°
08/29 - 01:00 AM68.6°61.2°
08/29 - 12:45 AM68.5°61.8°
08/29 - 12:30 AM68.8°62.6°
08/29 - 12:15 AM68.8°62.0°
08/29 - 12:00 AM68.4°61.8°
08/28 - 11:45 PM68.2°62.7°
08/28 - 11:30 PM68.1°62.4°
08/28 - 11:15 PM68.3°61.5°
08/28 - 11:00 PM68.9°61.5°
08/28 - 10:45 PM69.8°61.1°
08/28 - 10:30 PM70.6°60.3°
08/28 - 10:15 PM70.5°59.8°
08/28 - 10:00 PM70.5°61.1°
08/28 - 09:45 PM70.6°62.1°
08/28 - 09:30 PM71.5°61.7°
08/28 - 09:15 PM72.1°61.0°
08/28 - 09:00 PM71.8°60.1°
08/28 - 08:45 PM72.1°62.8°
08/28 - 08:30 PM72.8°63.2°
08/28 - 08:15 PM73.8°64.0°